This is the latest recevied weather packets stored in our database for station/object W3TMB. If no packets are shown the sender has not sent any weather packets the latest 1 day(s).
| Time | Temp. | Humidity | Pressure | Rain* | Wind** | Luminosity | Snow |
|---|---|---|---|---|---|---|---|
| 1778033065 | 15.56° C | 86% | 1005.4 hPa | 0 mm | 0 m/s | 0 W/m² | - |
| 1778032762 | 15.56° C | 86% | 1005.3 hPa | 0 mm | 0 m/s | 0 W/m² | - |
| 1778032460 | 15.56° C | 85% | 1005.4 hPa | 0 mm | 0 m/s | 0 W/m² | - |
| 1778032156 | 16.11° C | 85% | 1005.6 hPa | 0 mm | 0 m/s | 0 W/m² | - |
| 1778031854 | 16.11° C | 83% | 1005.3 hPa | 0 mm | 0 m/s | 0 W/m² | - |
| 1778031550 | 16.67° C | 83% | 1005.4 hPa | 0 mm | 0 m/s | 0 W/m² | - |
| 1778031248 | 16.67° C | 82% | 1005.3 hPa | 0 mm | 0 m/s | 0 W/m² | - |
| 1778030944 | 16.67° C | 82% | 1005.3 hPa | 0 mm | 0 m/s | 0 W/m² | - |
| 1778030641 | 16.67° C | 82% | 1005.3 hPa | 0 mm | 0 m/s | 0 W/m² | - |
| 1778030338 | 16.67° C | 82% | 1005.2 hPa | 0 mm | 0 m/s | 0 W/m² | - |
| 1778030035 | 17.22° C | 82% | 1005.2 hPa | 0 mm | 0 m/s | 0 W/m² | - |
| 1778029732 | 17.22° C | 81% | 1005 hPa | 0 mm | 0 m/s | 0 W/m² | - |
| 1778029430 | 17.22° C | 80% | 1005.2 hPa | 0 mm | 0 m/s | 0 W/m² | - |
| 1778029127 | 17.78° C | 80% | 1004.8 hPa | 0 mm | 0 m/s | 0 W/m² | - |
| 1778028824 | 17.78° C | 79% | 1004.7 hPa | 0 mm | 0 m/s | 0 W/m² | - |
| 1778028519 | 17.78° C | 79% | 1004.9 hPa | 0 mm | 0 m/s | 0 W/m² | - |
| 1778028217 | 18.33° C | 78% | 1005 hPa | 0 mm | 0 m/s | 0 W/m² | - |
| 1778027913 | 18.33° C | 77% | 1005 hPa | 0 mm | 0 m/s | 0 W/m² | - |
| 1778027609 | 18.33° C | 76% | 1004.9 hPa | 0 mm | 0 m/s | 0 W/m² | - |
| 1778027306 | 18.89° C | 75% | 1005 hPa | 0 mm | 0 m/s | 0 W/m² | - |
| 1778027003 | 18.89° C | 74% | 1004.9 hPa | 0 mm | 0 m/s | 0 W/m² | - |
| 1778026698 | 18.89° C | 73% | 1004.5 hPa | 0 mm | 0 m/s | 0 W/m² | - |
| 1778026396 | 19.44° C | 73% | 1004.7 hPa | 0 mm | 0 m/s | 0 W/m² | - |
| 1778026092 | 20° C | 71% | 1004.5 hPa | 0 mm | 0 m/s | 0 W/m² | - |
| 1778025790 | 20° C | 71% | 1004.3 hPa | 0 mm | 0 m/s | 1 W/m² | - |
* Rain latest hour (hover to see other rain measurements)
** Current wind speed in m/s (hover to see current wind gust speed)